This is the latest recevied weather packets stored in our database for station/object KC5TIL. If no packets are shown the sender has not sent any weather packets the latest 1 day(s).
| Time | Temp. | Humidity | Pressure | Rain* | Wind** | Luminosity | Snow |
|---|---|---|---|---|---|---|---|
| 1778047944 | 17.22° C | 77% | 1011.2 hPa | 0 mm | 2.68 m/s, 264° | 0 W/m² | - |
| 1778047643 | 17.22° C | 77% | 1011.1 hPa | 0 mm | 1.34 m/s, 69° | 0 W/m² | - |
| 1778047339 | 17.22° C | 77% | 1011 hPa | 0 mm | 1.34 m/s, 258° | 0 W/m² | - |
| 1778047036 | 17.22° C | 77% | 1011.2 hPa | 0 mm | 1.79 m/s, 18° | 0 W/m² | - |
| 1778046733 | 17.22° C | 77% | 1011.2 hPa | 0 mm | 2.24 m/s, 6° | 0 W/m² | - |
| 1778046430 | 17.78° C | 77% | 1011.1 hPa | 0 mm | 2.24 m/s, 319° | 0 W/m² | - |
| 1778046126 | 17.78° C | 77% | 1011.2 hPa | 0 mm | 1.34 m/s, 43° | 0 W/m² | - |
| 1778045824 | 17.78° C | 77% | 1011 hPa | 0 mm | 0.45 m/s, 64° | 0 W/m² | - |
| 1778045522 | 17.78° C | 77% | 1011.2 hPa | 0 mm | 0.89 m/s, 133° | 0 W/m² | - |
| 1778045220 | 17.78° C | 76% | 1011.1 hPa | 0 mm | 0.89 m/s, 216° | 0 W/m² | - |
| 1778044917 | 17.78° C | 76% | 1011.1 hPa | 0 mm | 1.34 m/s, 315° | 0 W/m² | - |
| 1778044609 | 17.78° C | 76% | 1011.1 hPa | 0 mm | 1.34 m/s, 48° | 0 W/m² | - |
| 1778044305 | 18.33° C | 76% | 1011.4 hPa | 0 mm | 2.68 m/s, 18° | 0 W/m² | - |
| 1778044004 | 18.33° C | 76% | 1011.3 hPa | 0 mm | 1.34 m/s, 21° | 0 W/m² | - |
| 1778043700 | 18.33° C | 76% | 1011.2 hPa | 0 mm | 2.68 m/s, 306° | 0 W/m² | - |
| 1778043397 | 18.89° C | 75% | 1011.1 hPa | 0 mm | 2.24 m/s, 2° | 0 W/m² | - |
| 1778043093 | 18.89° C | 76% | 1010.8 hPa | 0 mm | 0 m/s | 0 W/m² | - |
| 1778042791 | 18.89° C | 75% | 1011 hPa | 0 mm | 1.34 m/s, 257° | 0 W/m² | - |
| 1778042488 | 18.89° C | 75% | 1010.9 hPa | 0 mm | 0 m/s | 0 W/m² | - |
| 1778042185 | 18.89° C | 75% | 1011.1 hPa | 0 mm | 2.24 m/s, 348° | 0 W/m² | - |
| 1778041883 | 18.89° C | 75% | 1011.2 hPa | 0 mm | 1.34 m/s, 346° | 0 W/m² | - |
| 1778041582 | 19.44° C | 74% | 1011.2 hPa | 0 mm | 3.13 m/s, 28° | 0 W/m² | - |
| 1778041280 | 19.44° C | 74% | 1011.1 hPa | 0 mm | 1.79 m/s, 218° | 0 W/m² | - |
| 1778040978 | 20° C | 73% | 1011.1 hPa | 0 mm | 1.79 m/s, 0° | 0 W/m² | - |
| 1778040674 | 20° C | 74% | 1010.8 hPa | 0 mm | 1.79 m/s, 318° | 0 W/m² | - |
* Rain latest hour (hover to see other rain measurements)
** Current wind speed in m/s (hover to see current wind gust speed)